Taos, NM

6:25 PM MDT on June 28, 2017 (GMT -0600)
Taos Municipal

Weather History for KSKX - October, 2014

Change the Weather History Date:

Thursday, October 23, 2014

  Actual Average Record
Temperature  
Mean Temperature 49 °F -  
Max Temperature 68 °F 57 °F 78 °F (2003)
Min Temperature 30 °F 26 °F 12 °F (1996)
Degree Days  
Heating Degree Days 16    
Moisture  
Dew Point 29 °F    
Average Humidity 52    
Maximum Humidity 86    
Minimum Humidity 23    
Precipitation  
Precipitation 0.00 in - - ()
Sea Level Pressure  
Sea Level Pressure 30.32 in    
Wind  
Wind Speed 5 mph (North)    
Max Wind Speed 10 mph    
Max Gust Speed -    
Visibility 10 miles    
Events      
Averages and records for this station are not official NWS values.
T = Trace of Precipitation, MM = Missing Value Source: NWS Daily Summary

Daily Weather History Graph

Daily Weather History Graph

Search for Another Location

Airport or City:

Trip Planner

Search our weather history database for the weather conditions in past years. The results will help you decide how hot, cold, wet, or windy it might be!

Date:

Astronomy

Oct. 23, 2014 Rise Set
Actual Time 7:17 AM MDT 6:16 PM MDT
Civil Twilight 6:50 AM MDT 6:42 PM MDT
Nautical Twilight 6:20 AM MDT 7:12 PM MDT
Astronomical Twilight 5:50 AM MDT 7:42 PM MDT
Moon 7:00 AM MDT (10/23) 6:19 PM MDT (10/23)
Length of Visible Light 11h 51m
Length of Day
10h 58m
Waning Crescent, 0% of the Moon is Illuminated
Oct 23
Waning Crescent
Oct 23
New
Oct 30
First Quarter
Nov 6
Full
Nov 14
Last Quarter

Hourly Weather History & Observations

Time (MDT) Temp. Windchill Dew Point Humidity Pressure Visibility Wind Dir Wind Speed Gust Speed Precip Events Conditions
12:15 AM 37.4 °F 33.8 °F 28.4 °F 70% 30.28 in 10.0 mi North 4.6 mph - N/A   Clear
12:35 AM 39.2 °F 34.2 °F 28.4 °F 65% 30.29 in 10.0 mi North 6.9 mph - N/A   Clear
12:55 AM 39.2 °F 34.2 °F 28.4 °F 65% 30.29 in 10.0 mi NNE 6.9 mph - N/A   Clear
1:15 AM 37.4 °F 32.8 °F 28.4 °F 70% 30.29 in 10.0 mi NE 5.8 mph - N/A   Clear
1:35 AM 37.4 °F 32.8 °F 26.6 °F 65% 30.29 in 10.0 mi North 5.8 mph - N/A   Clear
1:55 AM 37.4 °F 32.8 °F 28.4 °F 70% 30.29 in 10.0 mi NNE 5.8 mph - N/A   Clear
2:15 AM 37.4 °F 32.8 °F 28.4 °F 70% 30.29 in 10.0 mi NNE 5.8 mph - N/A   Clear
2:35 AM 33.8 °F 27.0 °F 26.6 °F 75% 30.29 in 10.0 mi North 8.1 mph - N/A   Clear
2:55 AM 37.4 °F 32.8 °F 28.4 °F 70% 30.30 in 10.0 mi NNE 5.8 mph - N/A   Clear
3:15 AM 33.8 °F 27.7 °F 26.6 °F 75% 30.30 in 10.0 mi North 6.9 mph - N/A   Clear
3:35 AM 35.6 °F 30.7 °F 28.4 °F 75% 30.29 in 10.0 mi NNE 5.8 mph - N/A   Clear
3:55 AM 35.6 °F - 28.4 °F 75% 30.29 in 10.0 mi Calm Calm - N/A   Clear
4:15 AM 33.8 °F - 26.6 °F 75% 30.29 in 10.0 mi Calm Calm - N/A   Clear
4:35 AM 35.6 °F - 28.4 °F 75% 30.28 in 10.0 mi Calm Calm - N/A   Clear
4:55 AM 30.2 °F 23.4 °F 24.8 °F 80% 30.28 in 10.0 mi North 6.9 mph - N/A   Clear
5:15 AM 30.2 °F 23.4 °F 26.6 °F 86% 30.29 in 10.0 mi North 6.9 mph - N/A   Clear
5:35 AM 30.2 °F 22.6 °F 26.6 °F 86% 30.30 in 10.0 mi North 8.1 mph - N/A   Clear
5:55 AM 30.2 °F 22.6 °F 26.6 °F 86% 30.30 in 10.0 mi NNE 8.1 mph - N/A   Clear
6:15 AM 32.0 °F 26.4 °F 26.6 °F 80% 30.31 in 10.0 mi North 5.8 mph - N/A   Clear
6:35 AM 30.2 °F 24.3 °F 24.8 °F 80% 30.32 in 10.0 mi North 5.8 mph - N/A   Clear
6:55 AM 30.2 °F 24.3 °F 26.6 °F 86% 30.33 in 10.0 mi North 5.8 mph - N/A   Clear
7:15 AM 30.2 °F 23.4 °F 26.6 °F 86% 30.34 in 10.0 mi North 6.9 mph - N/A   Clear
7:35 AM 30.2 °F 23.4 °F 26.6 °F 86% 30.35 in 10.0 mi North 6.9 mph - N/A   Clear
7:55 AM 33.8 °F 30.8 °F 28.4 °F 81% 30.36 in 10.0 mi North 3.5 mph - N/A   Clear
8:15 AM 37.4 °F 33.8 °F 30.2 °F 75% 30.36 in 10.0 mi North 4.6 mph - N/A   Clear
8:35 AM 39.2 °F - 30.2 °F 70% 30.37 in 10.0 mi Calm Calm - N/A   Clear
8:55 AM 42.8 °F - 32.0 °F 66% 30.38 in 10.0 mi Calm Calm - N/A   Clear
9:15 AM 44.6 °F - 32.0 °F 61% 30.38 in 10.0 mi Calm Calm - N/A   Clear
9:35 AM 48.2 °F - 33.8 °F 58% 30.37 in 10.0 mi Calm Calm - N/A   Clear
9:55 AM 51.8 °F - 33.8 °F 50% 30.37 in 10.0 mi Calm Calm - N/A   Clear
10:15 AM 51.8 °F - 33.8 °F 50% 30.36 in 10.0 mi Calm Calm - N/A   Clear
10:35 AM 53.6 °F - 33.8 °F 47% 30.37 in 10.0 mi NW 3.5 mph - N/A   Clear
10:55 AM 55.4 °F - 33.8 °F 44% 30.37 in 10.0 mi Calm Calm - N/A   Clear
11:15 AM 57.2 °F - 33.8 °F 41% 30.37 in 10.0 mi NNW 6.9 mph - N/A   Clear
11:35 AM 59.0 °F - 33.8 °F 39% 30.37 in 10.0 mi North 6.9 mph - N/A   Clear
11:55 AM 60.8 °F - 33.8 °F 36% 30.36 in 10.0 mi WNW 6.9 mph - N/A   Clear
12:15 PM 62.6 °F - 32.0 °F 32% 30.35 in 10.0 mi NNW 8.1 mph - N/A   Clear
12:35 PM 64.4 °F - 30.2 °F 28% 30.34 in 10.0 mi WNW 8.1 mph - N/A   Clear
12:55 PM 64.4 °F - 28.4 °F 26% 30.33 in 10.0 mi North 10.4 mph - N/A   Clear
1:15 PM 66.2 °F - 28.4 °F 24% 30.32 in 10.0 mi NNW 10.4 mph - N/A   Clear
1:35 PM 64.4 °F - 28.4 °F 26% 30.30 in 10.0 mi NW 4.6 mph - N/A   Clear
1:55 PM 66.2 °F - 28.4 °F 24% 30.30 in 10.0 mi Calm Calm - N/A   Clear
2:15 PM 66.2 °F - 28.4 °F 24% 30.29 in 10.0 mi NNW 6.9 mph - N/A   Clear
2:35 PM 66.2 °F - 28.4 °F 24% 30.28 in 10.0 mi North 6.9 mph - N/A   Clear
2:55 PM 66.2 °F - 28.4 °F 24% 30.28 in 10.0 mi WNW 6.9 mph - N/A   Clear
3:15 PM 68.0 °F - 28.4 °F 23% 30.28 in 10.0 mi NNW 6.9 mph - N/A   Clear
3:35 PM 68.0 °F - 28.4 °F 23% 30.27 in 10.0 mi WNW 5.8 mph - N/A   Clear
3:55 PM 66.2 °F - 28.4 °F 24% 30.27 in 10.0 mi Calm Calm - N/A   Clear
4:15 PM 68.0 °F - 30.2 °F 24% 30.27 in 10.0 mi WSW 8.1 mph - N/A   Clear
4:35 PM 66.2 °F - 30.2 °F 26% 30.27 in 10.0 mi SW 8.1 mph - N/A   Clear
4:55 PM 66.2 °F - 28.4 °F 24% 30.27 in 10.0 mi SW 9.2 mph - N/A   Clear
5:15 PM 66.2 °F - 30.2 °F 26% 30.28 in 10.0 mi WSW 6.9 mph - N/A   Clear
5:35 PM 66.2 °F - 28.4 °F 24% 30.29 in 10.0 mi SW 9.2 mph - N/A   Clear
5:55 PM 64.4 °F - 26.6 °F 24% 30.29 in 10.0 mi SW 6.9 mph - N/A   Clear
6:15 PM 60.8 °F - 26.6 °F 27% 30.30 in 10.0 mi SW 6.9 mph - N/A   Clear
6:35 PM 60.8 °F - 26.6 °F 27% 30.31 in 10.0 mi SW 5.8 mph - N/A   Clear
6:55 PM 57.2 °F - 24.8 °F 29% 30.31 in 10.0 mi SSW 5.8 mph - N/A   Clear
7:15 PM 53.6 °F - 24.8 °F 33% 30.32 in 10.0 mi SSW 3.5 mph - N/A   Clear
7:35 PM 50.0 °F - 26.6 °F 40% 30.32 in 10.0 mi East 8.1 mph - N/A   Clear
7:55 PM 48.2 °F - 28.4 °F 46% 30.32 in 10.0 mi East 4.6 mph - N/A   Clear
8:15 PM 48.2 °F - 28.4 °F 46% 30.32 in 10.0 mi ENE 5.8 mph - N/A   Clear
8:35 PM 48.2 °F - 28.4 °F 46% 30.33 in 10.0 mi East 8.1 mph - N/A   Clear
8:55 PM 46.4 °F 41.9 °F 28.4 °F 50% 30.34 in 10.0 mi East 9.2 mph - N/A   Clear
9:15 PM 44.6 °F 40.7 °F 26.6 °F 49% 30.34 in 10.0 mi ESE 6.9 mph - N/A   Clear
9:35 PM 44.6 °F 40.2 °F 26.6 °F 49% 30.34 in 10.0 mi ESE 8.1 mph - N/A   Clear
9:55 PM 44.6 °F 39.2 °F 26.6 °F 49% 30.35 in 10.0 mi ESE 10.4 mph - N/A   Clear
10:15 PM 44.6 °F 39.7 °F 26.6 °F 49% 30.36 in 10.0 mi ESE 9.2 mph - N/A   Clear
10:35 PM 42.8 °F 37.5 °F 26.6 °F 53% 30.36 in 10.0 mi East 9.2 mph - N/A   Clear
10:55 PM 42.8 °F 37.5 °F 26.6 °F 53% 30.36 in 10.0 mi East 9.2 mph - N/A   Clear
11:15 PM 39.2 °F - 26.6 °F 61% 30.36 in 10.0 mi Calm Calm - N/A   Clear
11:35 PM 42.8 °F 40.1 °F 28.4 °F 57% 30.37 in 10.0 mi NNW 4.6 mph - N/A   Clear
11:55 PM 41.0 °F 39.0 °F 26.6 °F 57% 30.37 in 10.0 mi NNW 3.5 mph - N/A   Clear